STARLINK-35391

Last updated on Wed Dec 31 2025 00:02:06 GMT+0000 (Coordinated Universal Time)

1 66616U 25270AE 25364.58993794 .00079759 00000+0 18946-2 0 9991 2 66616 43.0020 89.3844 0002538 257.9726 102.0846 15.40732191 7212
UTC large
Height (km)
Speed (km/s)
/
Latitude / Longitude
Inclination (degrees)
Orbital Period (minutes)
Azimuth
Elevation
Range (km)
Doppler Factor

Next 0 passes for location: London (51.5072 / 0.1276)

Sorry there are no passes over London.